CW4713 Weather Reports


Display with metric or nautical units.
time (UTC)temp
F
wind
direction
speed
MPH
gust
MPH
rain 1hr
in
rain 24hr
in
rain mn
in
humidity
%
barometer
mb
20260502203304 47 343 2.0 5.0 0.00 0.00 0.00 70 1015.9
20260502202804 47 340 5.0 6.0 0.00 0.00 0.00 70 1015.8
20260502202305 47 352 4.0 6.0 0.00 0.00 0.00 70 1015.7
20260502201804 47 9 4.0 6.0 0.00 0.00 0.00 71 1015.6
20260502201304 47 329 3.0 5.0 0.00 0.00 0.00 71 1015.5
20260502200804 47 322 4.0 7.0 0.00 0.00 0.00 71 1015.5
20260502200304 47 332 4.0 6.0 0.00 0.00 0.00 71 1015.4
20260502195804 47 332 6.0 8.0 0.00 0.00 0.00 72 1015.3
20260502195305 47 337 5.0 7.0 0.00 0.00 0.00 72 1015.2
20260502194804 47 350 4.0 8.0 0.00 0.00 0.00 73 1015.1
20260502194303 47 323 2.0 7.0 0.00 0.00 0.00 74 1015.0
20260502193804 46 327 3.0 7.0 0.00 0.00 0.00 74 1015.0
20260502193304 46 335 1.0 6.0 0.00 0.00 0.00 75 1014.9
20260502192804 45 346 4.0 6.0 0.00 0.00 0.00 75 1014.8
20260502192305 45 355 4.0 6.0 0.00 0.00 0.00 76 1014.8
20260502191804 45 334 3.0 6.0 0.00 0.00 0.00 76 1014.7
20260502191304 45 330 2.0 5.0 0.00 0.00 0.00 76 1014.7
20260502190804 44 329 3.0 6.0 0.00 0.00 0.00 77 1014.7
20260502190304 44 341 3.0 5.0 0.00 0.00 0.00 77 1014.6
20260502185804 44 344 0.0 2.0 0.00 0.00 0.00 78 1014.6
20260502185305 44 281 1.0 5.0 0.00 0.00 0.00 79 1014.4
20260502184804 44 6 3.0 5.0 0.00 0.00 0.00 80 1014.4
20260502184304 43 319 3.0 5.0 0.00 0.00 0.00 81 1014.2
20260502183804 43 25 2.0 3.0 0.00 0.00 0.00 82 1014.3
20260502183304 43 340 1.0 3.0 0.00 0.00 0.00 82 1014.3
20260502182805 42 7 2.0 3.0 0.00 0.00 0.00 82 1014.3
20260502182305 42 10 1.0 2.0 0.00 0.00 0.00 83 1014.3
20260502181804 41 24 2.0 3.0 0.00 0.00 0.00 84 1014.2
20260502181304 41 24 2.0 3.0 0.00 0.00 0.00 84 1014.2
20260502180804 41 34 1.0 2.0 0.00 0.00 0.00 85 1014.1
20260502180304 41 42 2.0 2.0 0.00 0.00 0.00 85 1014.1
20260502170304 39 175 2.0 3.0 0.00 0.00 0.00 87 1013.7
20260502164304 38 235 1.0 3.0 0.00 0.00 0.00 88 1013.6
20260502163804 38 40 0.0 0.0 0.00 0.00 0.00 88 1013.5
20260502163304 38 40 0.0 0.0 0.00 0.00 0.00 88 1013.4
20260502162804 38 40 0.0 0.0 0.00 0.00 0.00 88 1013.2
20260502162304 38 40 0.0 0.0 0.00 0.00 0.00 88 1013.1
20260502161804 38 40 0.0 0.0 0.00 0.00 0.00 88 1012.9
20260502161304 38 40 0.0 0.0 0.00 0.00 0.00 88 1012.8
20260502160804 38 40 0.0 0.0 0.00 0.00 0.00 88 1012.8
20260502160304 38 40 0.0 0.0 0.00 0.00 0.00 88 1012.6
20260502152305 37 151 1.0 1.0 0.00 0.00 0.00 87 1012.4
20260502151804 37 0 0.0 0.0 0.00 0.00 0.00 87 1012.4
20260502151304 37 0 0.0 0.0 0.00 0.00 0.00 86 1012.3
20260502150804 37 0 0.0 0.0 0.00 0.00 0.00 86 1012.2
20260502150304 37 0 0.0 0.0 0.00 0.00 0.00 86 1012.1
20260502130304 38 220 1.0 2.0 0.00 0.00 0.00 81 1009.7
20260502123804 38 177 3.0 3.0 0.00 0.00 0.00 80 1009.3
20260502123304 38 143 1.0 3.0 0.00 0.00 0.00 80 1009.2
20260502122804 38 211 3.0 5.0 0.00 0.00 0.00 79 1009.3
20260502122306 38 164 0.0 2.0 0.00 0.00 0.00 79 1009.2
20260502121804 38 155 1.0 2.0 0.00 0.00 0.00 79 1009.0
20260502121304 39 285 0.0 1.0 0.00 0.00 0.00 78 1009.0
20260502120804 39 305 2.0 3.0 0.00 0.00 0.00 78 1008.9
20260502115805 39 242 0.0 5.0 0.00 0.00 0.00 78 1008.7
20260502115306 39 6 1.0 5.0 0.00 0.00 0.00 78 1008.7
20260502114804 39 45 1.0 2.0 0.00 0.00 0.00 77 1008.8
20260502114305 39 33 2.0 7.0 0.00 0.00 0.00 78 1008.7
20260502113804 39 339 3.0 7.0 0.00 0.00 0.00 77 1008.6
20260502113304 40 305 2.0 5.0 0.00 0.00 0.00 77 1008.6
20260502112804 40 277 0.0 5.0 0.00 0.00 0.00 77 1008.5
20260502112306 39 287 2.0 3.0 0.00 0.00 0.00 77 1008.4
20260502111804 39 302 3.0 7.0 0.00 0.00 0.00 77 1008.4
20260502111304 40 303 3.0 5.0 0.00 0.00 0.00 77 1008.3
20260502110804 40 280 1.0 3.0 0.00 0.00 0.00 77 1008.2
20260502110304 40 95 0.0 2.0 0.00 0.00 0.00 77 1008.0
20260502091305 39 195 1.0 3.0 0.00 0.00 0.00 80 1006.3
20260502090804 39 296 0.0 2.0 0.00 0.00 0.00 81 1006.2
20260502090304 39 350 2.0 2.0 0.00 0.00 0.00 81 1005.9
20260502071304 39 5 5.0 10.0 0.00 0.00 0.00 81 1003.5
20260502070804 39 259 2.0 5.0 0.00 0.00 0.00 81 1003.6
20260502070304 39 215 4.0 10.0 0.00 0.00 0.00 82 1003.6
20260502065803 39 253 7.0 15.0 0.00 0.00 0.00 83 1003.5
20260502065306 38 271 5.0 9.0 0.00 0.00 0.00 84 1003.5
20260502064804 38 257 3.0 8.0 0.00 0.00 0.00 83 1003.4
20260502064304 38 313 7.0 10.0 0.00 0.00 0.00 84 1003.3
20260502063804 38 307 3.0 7.0 0.00 0.00 0.00 84 1003.4
20260502063303 38 250 3.0 8.0 0.00 0.00 0.00 84 1003.3
20260502062804 38 337 4.0 7.0 0.00 0.00 0.00 84 1003.2
20260502062306 38 160 4.0 10.0 0.00 0.00 0.00 84 1003.2
20260502060804 38 298 6.0 12.0 0.00 0.00 0.00 84 1003.0
20260502060304 38 326 5.0 9.0 0.00 0.00 0.00 84 1002.8
20260502055805 39 198 5.0 12.0 0.00 0.00 0.00 83 1002.8
20260502055306 38 313 5.0 12.0 0.00 0.00 0.00 85 1002.5
20260502054804 38 309 4.0 9.0 0.00 0.00 0.00 86 1002.4
20260502054304 38 335 2.0 7.0 0.00 0.00 0.00 87 1002.4
20260502053804 37 248 3.0 8.0 0.00 0.00 0.00 88 1002.2
20260502053304 37 217 2.0 6.0 0.00 0.00 0.00 88 1002.3
20260502052804 37 244 3.0 13.0 0.00 0.00 0.00 88 1002.1
20260502052306 37 296 9.0 14.0 0.00 0.00 0.00 88 1002.1
20260502051804 37 304 6.0 17.0 0.00 0.00 0.00 88 1002.1
20260502051304 37 321 7.0 14.0 0.00 0.00 0.00 88 1002.1
20260502050804 37 311 6.0 12.0 0.00 0.00 0.00 87 1002.0
20260502050304 37 320 9.0 14.0 0.00 0.00 0.00 87 1001.8
20260502045804 37 356 6.0 10.0 0.00 0.00 0.00 86 1002.0
20260502045306 38 310 5.0 13.0 0.00 0.00 0.00 85 1001.8
20260502044805 38 315 3.0 9.0 0.00 0.00 0.00 85 1001.9
20260502044304 38 324 7.0 12.0 0.00 0.00 0.00 84 1001.7
20260502043805 38 317 5.0 10.0 0.00 0.00 0.00 84 1001.8
20260502033304 42 297 6.0 15.0 0.00 0.00 0.00 70 1000.4
20260502032804 42 281 3.0 20.0 0.00 0.00 0.00 66 1000.6
20260502032306 42 190 7.0 22.0 0.00 0.00 0.00 66 1000.5
20260502031805 43 245 5.0 14.0 0.00 0.00 0.00 64 1000.3
20260502031304 43 215 6.0 14.0 0.00 0.00 0.00 63 1000.0
20260502030804 43 238 13.0 24.0 0.00 0.00 0.00 62 1000.1
20260502030305 43 222 15.0 29.0 0.00 0.00 0.00 61 999.9
20260502025804 43 216 8.0 24.0 0.00 0.00 0.00 62 999.8
20260502025306 43 225 12.0 38.0 0.00 0.00 0.00 61 999.7
20260502024804 43 211 20.0 32.0 0.00 0.00 0.00 59 999.4
20260502024304 43 202 16.0 30.0 0.00 0.00 0.00 61 999.8
20260502023804 42 183 16.0 25.0 0.00 0.00 0.00 64 1000.0
20260502023305 41 180 8.0 21.0 0.00 0.00 0.00 73 1000.4
20260502022804 41 240 7.0 10.0 0.00 0.00 0.00 75 1000.8
20260502022306 40 30 7.0 16.0 0.00 0.00 0.00 72 1000.4
20260502021804 40 140 10.0 26.0 0.00 0.00 0.00 80 1000.9
20260502021304 39 166 16.0 25.0 0.00 0.00 0.00 77 1000.9
20260502020804 39 74 10.0 16.0 0.00 0.00 0.00 84 1001.3
20260502020303 39 236 4.0 9.0 0.00 0.00 0.00 82 1001.2
20260502015804 40 267 5.0 9.0 0.00 0.00 0.00 82 1000.8
20260502015305 40 183 7.0 20.0 0.00 0.00 0.00 81 1001.4
20260502014804 40 171 8.0 21.0 0.00 0.00 0.00 79 1000.6
20260502014304 40 310 5.0 9.0 0.00 0.00 0.00 82 1001.3
20260502013804 40 109 7.0 17.0 0.00 0.00 0.00 82 1001.2
20260502013304 40 218 8.0 12.0 0.00 0.00 0.00 81 1001.3
20260502012804 40 305 5.0 9.0 0.00 0.00 0.00 82 1001.4
20260502012306 39 311 7.0 12.0 0.00 0.00 0.00 82 1001.3
20260502011804 40 303 6.0 12.0 0.00 0.00 0.00 82 1001.5
20260502011303 39 236 5.0 10.0 0.00 0.00 0.00 82 1001.3
20260502010804 40 23 2.0 6.0 0.00 0.00 0.00 81 1001.8
20260502010304 39 300 5.0 10.0 0.00 0.00 0.00 82 1001.5
20260502005804 40 250 3.0 7.0 0.00 0.00 0.00 82 1001.7
20260502005306 40 267 4.0 9.0 0.00 0.00 0.00 80 1001.9
20260502004804 40 276 2.0 5.0 0.00 0.00 0.00 80 1001.5
20260502004304 40 232 5.0 9.0 0.00 0.00 0.00 80 1001.9
20260502003804 40 208 5.0 9.0 0.00 0.00 0.00 79 1002.0
20260502003304 40 242 2.0 7.0 0.00 0.00 0.00 79 1002.0
20260502002804 40 138 4.0 7.0 0.00 0.00 0.00 79 1001.9
20260502002305 40 301 3.0 14.0 0.00 0.00 0.00 79 1001.6
20260502001804 40 278 7.0 10.0 0.00 0.00 0.00 81 1001.7
20260502001304 40 145 2.0 7.0 0.00 0.00 0.00 78 1002.0
20260502000804 40 294 7.0 10.0 0.00 0.00 0.00 79 1001.8
20260502000304 40 264 6.0 10.0 0.00 0.00 0.00 79 1001.9
20260501235803 41 314 4.0 8.0 0.00 0.00 0.00 77 1001.6
20260501235305 41 205 11.0 16.0 0.00 0.00 0.00 78 1002.2
20260501234804 41 219 5.0 9.0 0.00 0.00 0.00 77 1002.2
20260501234304 41 260 5.0 13.0 0.00 0.00 0.00 77 1001.7
20260501233804 42 251 5.0 9.0 0.00 0.00 0.00 75 1001.9
20260501233304 42 282 3.0 14.0 0.00 0.00 0.00 70 1002.1
20260501232804 41 220 6.0 20.0 0.00 0.00 0.00 72 1001.7
20260501232306 40 192 6.0 16.0 0.00 0.00 0.00 78 1002.2
20260501231804 40 207 9.0 16.0 0.00 0.00 0.00 80 1002.2
20260501231304 40 197 4.0 10.0 0.00 0.00 0.00 78 1002.2
20260501230804 40 299 7.0 15.0 0.00 0.00 0.00 78 1001.9
20260501230304 40 292 8.0 12.0 0.00 0.00 0.00 80 1002.4
20260501225804 41 242 5.0 9.0 0.00 0.00 0.00 77 1002.7
20260501225306 41 204 5.0 9.0 0.00 0.00 0.00 76 1002.6
20260501224805 41 298 5.0 14.0 0.00 0.00 0.00 75 1002.7
20260501224305 41 307 9.0 17.0 0.00 0.00 0.00 76 1003.0
20260501223804 41 185 4.0 14.0 0.00 0.00 0.00 73 1003.1
20260501223304 42 275 6.0 9.0 0.00 0.00 0.00 73 1002.8
20260501222805 43 259 4.0 14.0 0.00 0.00 0.00 69 1002.3
20260501222305 44 270 7.0 22.0 0.00 0.00 0.00 62 1002.5
20260501221804 45 62 8.0 36.0 0.00 0.00 0.00 58 1002.5
20260501221304 46 194 22.0 44.0 0.00 0.00 0.00 50 1002.1
20260501220804 45 184 20.0 44.0 0.00 0.00 0.00 51 1001.6
20260501220304 44 207 23.0 58.0 0.00 0.00 0.00 52 1002.1
20260501215804 44 216 18.0 32.0 0.00 0.00 0.00 61 1002.0
20260501215305 43 202 14.0 32.0 0.00 0.00 0.00 58 1002.2
20260501214804 42 254 10.0 15.0 0.00 0.00 0.00 69 1002.0
20260501214304 42 304 5.0 13.0 0.00 0.00 0.00 68 1002.5
20260501213804 43 292 9.0 22.0 0.00 0.00 0.00 63 1002.6
20260501213304 42 108 7.0 13.0 0.00 0.00 0.00 66 1002.7
20260501212804 43 277 10.0 17.0 0.00 0.00 0.00 63 1002.6
20260501212306 43 173 12.0 24.0 0.00 0.00 0.00 61 1002.7
20260501211804 44 159 13.0 29.0 0.00 0.00 0.00 57 1002.4
20260501211304 45 192 14.0 20.0 0.00 0.00 0.00 57 1003.0
20260501210804 44 273 9.0 26.0 0.00 0.00 0.00 57 1003.6
20260501210304 43 234 9.0 16.0 0.00 0.00 0.00 64 1004.0
20260501205804 43 195 10.0 23.0 0.00 0.00 0.00 60 1003.6
20260501205306 42 193 8.0 14.0 0.00 0.00 0.00 67 1004.1
20260501204804 42 306 8.0 15.0 0.00 0.00 0.00 68 1003.4
20260501204304 41 305 4.0 12.0 0.00 0.00 0.00 70 1003.6
20260501203803 41 110 5.0 8.0 0.00 0.00 0.00 70 1004.1